Flag Weather past 2 weeks in Venice, Italy

Now
57 °F

Scattered clouds.


Feels Like: 57 °F
Forecast: 56 / 59 °F
Wind: 5 mph from Northeast

Location: Venice / Tessera

Current Time: Nov 29, 2014 at 10:59:23 AM

Latest Report: Nov 29, 2014 at 9:50 AM


Visibility: N/A

Pressure: 29.95 "Hg

Humidity: 82%

Dew point: 52 °F

Location of VeniceLocation

Historic Weather in Venice — Graph

°F

Venice temperature yesterday

Maximum temperature yesterday: 55 °F (at 2:50 PM)
Minimum temperature yesterday: 48 °F (at 12:20 AM)
Average temperature yesterday: 51 °F

Past Weeks' High & Low Weather Summary

 TemperatureHumidityPressure
High64 °F (Nov 14, 1:20 PM)100% (Nov 17, 7:20 PM)30.36 "Hg (Nov 17, 7:20 PM)
Low37 °F (Nov 24, 3:50 AM)45% (Nov 19, 3:20 PM)29.53 "Hg (Nov 17, 11:50 PM)
Average50 °F83%30.02 "Hg
* Reported Nov 14 9:20 AM — Nov 29 9:50 AM, Venice, Weather by CustomWeather, © 2014

Note: Actual official high and low records may vary slightly from our data, if they occured in-between our weather recording intervals... More about our weather records

Advertising

Venice weather history for previous 24 hours

 ConditionsComfort  
Time TempWeatherWind HumidityBarometerVisibility
9:50 AM
Nov 29
57 °FScattered clouds.5 mph82%29.95 "HgN/A
8:20 AM52 °FScattered clouds.5 mph94%29.98 "HgN/A
7:50 AM52 °FScattered clouds.9 mph94%29.95 "HgN/A
7:20 AM52 °FPartly cloudy.5 mph94%29.95 "HgN/A
5:50 AM54 °FPassing clouds.3 mph88%29.95 "Hg6 mi
5:20 AM54 °FPassing clouds.3 mph94%29.95 "Hg6 mi
2:20 AM54 °FPassing clouds.6 mph94%29.98 "Hg6 mi
12:20 AM55 °FPartly cloudy.8 mph94%29.98 "Hg5 mi
11:20 PM
Nov 28
54 °FPartly cloudy.8 mph94%29.98 "Hg6 mi
10:50 PM55 °FPartly cloudy.8 mph88%29.98 "HgN/A
10:20 PM54 °FPartly cloudy.8 mph94%29.98 "HgN/A
9:50 PM54 °FPartly cloudy.9 mph88%29.98 "HgN/A
9:20 PM55 °FPartly cloudy.9 mph88%29.98 "HgN/A
8:50 PM55 °FPartly cloudy.9 mph82%29.98 "HgN/A
8:20 PM55 °FPartly cloudy.10 mph88%29.98 "HgN/A
6:50 PM54 °FPartly cloudy.7 mph94%29.95 "HgN/A
5:50 PM54 °FPassing clouds.8 mph94%29.95 "HgN/A
5:20 PM55 °FPassing clouds.8 mph88%29.95 "HgN/A
4:50 PM55 °FPartly cloudy.7 mph88%29.95 "HgN/A
3:50 PM55 °FBroken clouds.7 mph88%29.95 "HgN/A
2:50 PM55 °FPartly sunny.8 mph82%29.95 "HgN/A
1:50 PM54 °FBroken clouds.9 mph88%29.95 "HgN/A
1:20 PM54 °FBroken clouds.10 mph88%29.95 "HgN/A
12:50 PM54 °FBroken clouds.10 mph88%29.98 "Hg6 mi
12:20 PM52 °FPartly sunny.8 mph88%29.98 "Hg6 mi
11:50 AM52 °FPartly sunny.8 mph88%29.98 "Hg6 mi
11:20 AM52 °FPartly sunny.3 mph82%29.98 "Hg6 mi
10:50 AM50 °FPartly sunny.8 mph88%29.98 "Hg5 mi
10:20 AM50 °FPartly sunny.9 mph88%29.98 "Hg5 mi
Weather by CustomWeather, © 2014

See weather overviewHow to use our weather pages